OM2RC-6 Weather Reports


Display with metric or nautical units.
time (UTC)temp
F
wind
direction
speed
MPH
gust
MPH
rain 1hr
in
rain 24hr
in
rain mn
in
humidity
%
barometer
mb
20260507220314 56 201 6.0 14.0 0.00 0.00 0.00 100 1016.6
20260507215813 56 200 6.0 15.0 0.00 0.00 0.00 100 1016.6
20260507215312 56 185 5.0 13.0 0.00 0.00 0.00 100 1016.5
20260507214309 56 192 7.0 13.0 0.00 0.00 0.00 100 1016.5
20260507213808 55 202 8.0 14.0 0.00 0.00 0.00 100 1016.3
20260507213307 55 194 7.0 14.0 0.00 0.00 0.00 100 1016.4
20260507212806 55 195 6.0 16.0 0.00 0.00 0.00 100 1016.4
20260507212307 55 198 7.0 16.0 0.00 0.00 0.00 100 1016.3
20260507211804 55 206 9.0 17.0 0.00 0.00 0.00 100 1016.3
20260507211304 55 195 8.0 19.0 0.00 0.00 0.00 100 1016.3
20260507210300 56 195 6.0 15.0 0.00 0.00 0.00 100 1016.3
20260507205759 56 206 8.0 17.0 0.00 0.00 0.00 100 1016.1
20260507205258 56 203 9.0 18.0 0.00 0.00 0.00 100 1016.2
20260507204757 56 202 7.0 19.0 0.00 0.00 0.00 100 1016.3
20260507204256 57 203 9.0 19.0 0.00 0.00 0.00 100 1016.2
20260507203755 57 200 9.0 16.0 0.00 0.00 0.00 100 1016.2
20260507203254 57 207 6.0 16.0 0.00 0.00 0.00 100 1016.2
20260507202753 57 211 10.0 16.0 0.00 0.00 0.00 100 1016.2
20260507202252 57 177 9.0 15.0 0.00 0.00 0.00 100 1016.1
20260507201751 57 203 7.0 15.0 0.00 0.00 0.00 100 1016.2
20260507200749 57 198 7.0 15.0 0.00 0.00 0.00 100 1016.0
20260507200246 57 179 8.0 16.0 0.00 0.00 0.00 100 1016.0
20260507195745 57 192 7.0 16.0 0.00 0.00 0.00 100 1016.0
20260507195241 57 203 8.0 15.0 0.00 0.00 0.00 100 1016.1
20260507194740 57 195 6.0 13.0 0.00 0.00 0.00 100 1016.0
20260507194239 57 205 4.0 17.0 0.00 0.00 0.00 100 1016.0
20260507193738 57 201 8.0 17.0 0.00 0.00 0.00 100 1015.9
20260507193236 57 208 6.0 12.0 0.00 0.00 0.00 100 1015.9
20260507192736 58 204 6.0 16.0 0.00 0.00 0.00 100 1015.9
20260507192233 58 200 7.0 16.0 0.00 0.00 0.00 100 1015.9
20260507191731 58 196 7.0 13.0 0.00 0.00 0.00 100 1015.8
20260507191230 58 202 5.0 13.0 0.00 0.00 0.00 100 1015.8
20260507190228 58 202 7.0 15.0 0.00 0.00 0.00 100 1015.6
20260507185726 58 199 6.0 13.0 0.00 0.00 0.00 100 1015.5
20260507184723 59 196 7.0 13.0 0.00 0.00 0.00 99 1015.2
20260507184220 59 202 7.0 17.0 0.00 0.00 0.00 97 1015.2
20260507183717 59 204 8.0 19.0 0.00 0.00 0.00 97 1015.1
20260507183216 60 205 9.0 19.0 0.00 0.00 0.00 95 1015.0
20260507182715 60 200 9.0 18.0 0.00 0.00 0.00 93 1015.0
20260507182213 60 194 10.0 19.0 0.00 0.00 0.00 91 1014.9
20260507181208 61 199 9.0 18.0 0.00 0.00 0.00 89 1014.8
20260507180709 61 202 8.0 18.0 0.00 0.00 0.00 89 1014.8
20260507180206 62 198 8.0 14.0 0.00 0.00 0.00 89 1014.7
20260507175201 61 161 5.0 8.0 0.00 0.00 0.00 99 1014.5
20260507174655 61 164 5.0 8.0 0.00 0.00 0.00 97 1014.4
20260507174154 62 159 5.0 8.0 0.00 0.00 0.00 94 1014.3
20260507173650 62 152 4.0 8.0 0.00 0.00 0.00 93 1014.2
20260507173150 62 157 4.0 8.0 0.00 0.00 0.00 92 1014.2
20260507172648 63 159 5.0 8.0 0.00 0.00 0.00 90 1014.2
20260507172148 63 157 5.0 8.0 0.00 0.00 0.00 89 1014.1
20260507171645 63 155 5.0 8.0 0.00 0.00 0.00 88 1014.0
20260507171144 64 158 5.0 8.0 0.00 0.00 0.00 85 1013.9
20260507170643 64 152 4.0 9.0 0.00 0.00 0.00 83 1013.8
20260507170142 64 156 4.0 10.0 0.00 0.00 0.00 83 1013.7
20260507165641 65 157 4.0 10.0 0.00 0.00 0.00 81 1013.7
20260507165139 65 163 5.0 10.0 0.00 0.00 0.00 80 1013.7
20260507164637 65 162 6.0 10.0 0.00 0.00 0.00 79 1013.6
20260507163634 66 165 4.0 12.0 0.00 0.00 0.00 75 1013.5
20260507163133 67 164 6.0 10.0 0.00 0.00 0.00 72 1013.4
20260507162632 69 165 3.0 8.0 0.00 0.00 0.00 70 1013.4
20260507162131 70 157 5.0 8.0 0.00 0.00 0.00 66 1013.2
20260507161128 69 161 6.0 10.0 0.00 0.00 0.00 68 1013.4
20260507160627 68 159 4.0 7.0 0.00 0.00 0.00 67 1013.5
20260507160124 67 172 4.0 6.0 0.00 0.00 0.00 70 1013.4
20260507155622 67 164 3.0 6.0 0.00 0.00 0.00 66 1013.4
20260507155118 68 166 3.0 6.0 0.00 0.00 0.00 66 1013.5
20260507154617 67 177 2.0 5.0 0.00 0.00 0.00 62 1013.6
20260507154116 67 187 3.0 5.0 0.00 0.00 0.00 60 1013.7
20260507153615 68 212 2.0 4.0 0.00 0.00 0.00 56 1013.7
20260507153113 68 225 2.0 5.0 0.00 0.00 0.00 54 1013.6
20260507152612 69 186 3.0 5.0 0.00 0.00 0.00 52 1013.6
20260507152111 70 233 2.0 4.0 0.00 0.00 0.00 52 1013.5
20260507151109 70 171 0.0 4.0 0.00 0.00 0.00 55 1013.5
20260507150607 68 209 1.0 6.0 0.00 0.00 0.00 56 1013.6
20260507150106 68 245 3.0 6.0 0.00 0.00 0.00 55 1013.5
20260507145605 70 251 3.0 6.0 0.00 0.00 0.00 52 1013.6
20260507145104 70 182 4.0 6.0 0.00 0.00 0.00 51 1013.6
20260507144601 72 251 2.0 4.0 0.00 0.00 0.00 50 1013.6
20260507144100 71 7 2.0 4.0 0.00 0.00 0.00 49 1013.6
20260507143057 70 228 3.0 7.0 0.00 0.00 0.00 51 1013.6
20260507142555 71 219 3.0 5.0 0.00 0.00 0.00 49 1013.6
20260507142053 74 225 1.0 5.0 0.00 0.00 0.00 47 1013.7
20260507141552 72 233 3.0 6.0 0.00 0.00 0.00 50 1013.7
20260507141051 70 195 3.0 7.0 0.00 0.00 0.00 49 1013.8
20260507140550 70 160 4.0 7.0 0.00 0.00 0.00 58 1013.9
20260507140048 70 114 2.0 7.0 0.00 0.00 0.00 59 1013.9
20260507135548 70 120 3.0 7.0 0.00 0.00 0.00 61 1014.0
20260507135047 74 255 1.0 5.0 0.00 0.00 0.00 56 1013.9
20260507134546 70 106 2.0 5.0 0.00 0.00 0.00 60 1014.1
20260507134044 70 166 2.0 4.0 0.00 0.00 0.00 59 1014.1
20260507133543 70 213 2.0 9.0 0.00 0.00 0.00 63 1014.0
20260507133042 70 210 2.0 9.0 0.00 0.00 0.00 66 1014.0
20260507132541 69 194 2.0 10.0 0.00 0.00 0.00 66 1014.0
20260507132040 68 206 5.0 10.0 0.00 0.00 0.00 70 1014.1
20260507131539 68 212 6.0 8.0 0.00 0.00 0.00 68 1014.0
20260507131038 67 188 4.0 9.0 0.00 0.00 0.00 73 1014.1
20260507130537 66 200 4.0 9.0 0.00 0.00 0.00 76 1014.2
20260507130034 65 187 4.0 9.0 0.00 0.00 0.00 76 1014.2
20260507125532 66 205 4.0 8.0 0.00 0.00 0.00 77 1014.2
20260507125032 65 220 4.0 8.0 0.00 0.00 0.00 78 1014.3
20260507124529 65 211 6.0 8.0 0.00 0.00 0.00 78 1014.2
20260507124028 66 195 4.0 8.0 0.00 0.00 0.00 76 1014.2
20260507123527 66 208 3.0 8.0 0.00 0.00 0.00 75 1014.2
20260507122523 66 202 3.0 6.0 0.00 0.00 0.00 76 1014.2
20260507122022 66 201 4.0 7.0 0.00 0.00 0.00 75 1014.3
20260507121521 66 204 4.0 7.0 0.00 0.00 0.00 74 1014.3
20260507121019 67 275 2.0 5.0 0.00 0.00 0.00 72 1014.3
20260507120518 67 266 2.0 6.0 0.00 0.00 0.00 73 1014.4
20260507120017 66 231 2.0 7.0 0.00 0.00 0.00 73 1014.3
20260507115516 66 209 4.0 9.0 0.00 0.00 0.00 73 1014.4
20260507115015 68 209 5.0 9.0 0.00 0.00 0.00 69 1014.5
20260507114514 72 230 1.0 6.0 0.00 0.00 0.00 63 1014.3
20260507114013 69 211 2.0 8.0 0.00 0.00 0.00 70 1014.5
20260507113512 65 266 4.0 8.0 0.00 0.00 0.00 77 1014.6
20260507113011 64 254 4.0 8.0 0.00 0.00 0.00 79 1014.7
20260507112510 63 227 5.0 8.0 0.00 0.00 0.00 80 1014.7
20260507112008 64 194 4.0 8.0 0.00 0.00 0.00 79 1014.6
20260507111507 63 202 5.0 9.0 0.00 0.00 0.00 78 1014.7
20260507111006 63 227 4.0 9.0 0.00 0.00 0.00 78 1014.8
20260507110005 63 202 6.0 10.0 0.00 0.00 0.00 79 1014.9
20260507105503 63 258 6.0 10.0 0.00 0.00 0.00 78 1014.9
20260507104501 64 262 6.0 10.0 0.00 0.00 0.00 78 1015.0
20260507103457 63 263 6.0 13.0 0.00 0.00 0.00 83 1015.1
20260507102955 64 254 6.0 13.0 0.00 0.00 0.00 83 1014.9
20260507101953 64 239 4.0 10.0 0.00 0.00 0.00 83 1015.0
20260507101453 64 246 4.0 8.0 0.00 0.00 0.00 83 1015.1
20260507100951 63 232 5.0 10.0 0.00 0.00 0.00 84 1015.0
20260507100450 62 246 5.0 10.0 0.00 0.00 0.00 84 1015.0
20260507095444 62 246 5.0 11.0 0.00 0.00 0.00 87 1015.0
20260507094942 62 227 6.0 11.0 0.00 0.00 0.00 88 1014.9
20260507094441 62 252 6.0 10.0 0.00 0.00 0.00 89 1014.9
20260507093935 62 235 6.0 11.0 0.00 0.00 0.00 88 1014.9
20260507092933 62 216 5.0 10.0 0.00 0.00 0.00 85 1014.8
20260507092430 63 216 5.0 11.0 0.00 0.00 0.00 86 1014.8
20260507091427 62 214 7.0 13.0 0.00 0.00 0.00 89 1014.5
20260507090926 63 240 6.0 12.0 0.00 0.00 0.00 87 1014.6
20260507090425 62 227 7.0 12.0 0.00 0.00 0.00 86 1014.5
20260507085924 63 217 6.0 12.0 0.00 0.00 0.00 87 1014.5
20260507085422 62 228 8.0 14.0 0.00 0.00 0.00 84 1014.4
20260507084921 64 226 7.0 14.0 0.00 0.00 0.00 82 1014.2
20260507084420 66 242 5.0 10.0 0.00 0.00 0.00 77 1014.0
20260507083918 65 207 5.0 12.0 0.00 0.00 0.00 80 1014.0
20260507083416 65 237 6.0 13.0 0.00 0.00 0.00 81 1013.9
20260507082915 65 218 6.0 13.0 0.00 0.00 0.00 82 1013.8
20260507082414 64 217 6.0 15.0 0.00 0.00 0.00 84 1013.7
20260507081912 64 235 7.0 12.0 0.00 0.00 0.00 85 1013.8
20260507080409 65 220 6.0 13.0 0.00 0.00 0.00 87 1013.6
20260507075904 66 199 5.0 10.0 0.00 0.00 0.00 84 1013.6
20260507075403 66 202 4.0 12.0 0.00 0.00 0.00 85 1013.6
20260507074902 65 193 4.0 10.0 0.00 0.00 0.00 87 1013.6
20260507074401 64 227 5.0 10.0 0.00 0.00 0.00 89 1013.8
20260507073900 64 201 5.0 9.0 0.00 0.00 0.00 92 1013.7
20260507073358 63 256 4.0 9.0 0.00 0.00 0.00 97 1013.6
20260507072857 61 210 4.0 8.0 0.00 0.00 0.00 98 1013.6
20260507072356 60 228 4.0 9.0 0.00 0.00 0.00 100 1013.7
20260507071854 60 201 4.0 9.0 0.00 0.00 0.00 100 1013.7
20260507071353 60 232 3.0 8.0 0.00 0.00 0.00 100 1013.8
20260507070853 59 224 5.0 8.0 0.00 0.00 0.00 100 1013.7
20260507065851 58 227 5.0 9.0 0.00 0.00 0.00 100 1013.6
20260507065349 59 211 3.0 8.0 0.00 0.00 0.00 100 1013.6
20260507064847 58 211 2.0 7.0 0.00 0.00 0.00 100 1013.5
20260507064347 58 200 4.0 7.0 0.00 0.00 0.00 100 1013.5
20260507063846 58 193 3.0 10.0 0.00 0.00 0.00 100 1013.5
20260507063342 57 202 6.0 10.0 0.00 0.00 0.00 100 1013.5
20260507062840 57 203 5.0 10.0 0.00 0.00 0.00 100 1013.4
20260507062339 57 211 3.0 9.0 0.00 0.00 0.00 100 1013.4
20260507061837 57 198 5.0 8.0 0.00 0.00 0.00 100 1013.4
20260507060834 57 191 4.0 8.0 0.00 0.00 0.00 100 1013.3
20260507060333 57 205 4.0 10.0 0.00 0.00 0.00 100 1013.2
20260507055831 57 204 5.0 10.0 0.00 0.00 0.00 100 1013.1
20260507055330 56 200 6.0 10.0 0.00 0.00 0.00 100 1013.0
20260507054830 56 198 5.0 10.0 0.00 0.00 0.00 100 1013.0
20260507054329 56 195 4.0 12.0 0.00 0.00 0.00 100 1012.9
20260507053826 56 188 5.0 12.0 0.00 0.00 0.00 100 1012.9
20260507053325 56 199 6.0 12.0 0.00 0.00 0.00 100 1012.8
20260507052821 56 203 5.0 10.0 0.00 0.00 0.00 100 1012.8
20260507052318 56 205 6.0 10.0 0.00 0.00 0.00 100 1012.7
20260507051817 57 192 5.0 10.0 0.00 0.00 0.00 100 1012.5
20260507051316 57 187 4.0 7.0 0.00 0.00 0.00 100 1012.5
20260507050814 57 167 1.0 6.0 0.00 0.00 0.00 100 1012.3
20260507050309 57 192 3.0 7.0 0.00 0.00 0.00 100 1012.3
20260507045807 56 207 3.0 7.0 0.00 0.00 0.00 100 1012.4
20260507045306 56 214 3.0 8.0 0.00 0.00 0.00 100 1012.3
20260507044803 56 213 4.0 8.0 0.00 0.00 0.00 100 1012.3
20260507044302 56 214 5.0 8.0 0.00 0.00 0.00 100 1012.2
20260507043801 56 202 3.0 10.0 0.00 0.00 0.00 100 1012.0
20260507043259 56 216 3.0 7.0 0.00 0.00 0.00 100 1012.1
20260507042758 56 215 3.0 6.0 0.00 0.00 0.00 100 1011.9
20260507042257 56 199 3.0 10.0 0.00 0.00 0.00 100 1011.9
20260507041755 56 206 4.0 10.0 0.00 0.00 0.00 100 1011.9
20260507041253 56 207 4.0 9.0 0.00 0.00 0.00 100 1011.9
20260507040751 56 211 3.0 7.0 0.00 0.00 0.00 100 1011.8
20260507040250 56 224 2.0 4.0 0.00 0.00 0.00 100 1011.8
20260507035748 56 213 2.0 5.0 0.00 0.00 0.00 100 1011.8
20260507035247 56 210 2.0 9.0 0.00 0.00 0.00 100 1011.7
20260507034746 56 216 5.0 9.0 0.00 0.00 0.00 100 1011.7
20260507034245 56 230 3.0 7.0 0.00 0.00 0.00 100 1011.6
20260507033744 56 218 3.0 8.0 0.00 0.00 0.00 100 1011.6
20260507032530 56 214 2.0 6.0 0.00 0.00 0.00 100 1011.4
20260507032029 56 204 3.0 7.0 0.00 0.00 0.00 100 1011.2
20260507031526 56 196 4.0 7.0 0.00 0.00 0.00 100 1011.2
20260507031025 56 196 4.0 7.0 0.00 0.00 0.00 100 1011.1
20260507030524 56 198 3.0 9.0 0.00 0.00 0.00 100 1011.1
20260507030021 56 191 4.0 9.0 0.00 0.00 0.00 100 1011.2
20260507025521 57 186 3.0 6.0 0.00 0.00 0.00 100 1011.3
20260507025019 57 187 3.0 8.0 0.00 0.00 0.00 100 1011.1
20260507024518 57 179 3.0 8.0 0.00 0.00 0.00 100 1011.2
20260507024017 57 187 4.0 12.0 0.00 0.00 0.00 100 1011.2
20260507023514 57 174 5.0 12.0 0.00 0.00 0.00 100 1011.2
20260507023013 57 173 5.0 10.0 0.00 0.00 0.00 100 1011.1
20260507022511 57 198 4.0 9.0 0.00 0.00 0.00 100 1011.1
20260507022010 57 205 5.0 9.0 0.00 0.00 0.00 100 1011.1
20260507021508 57 189 4.0 7.0 0.00 0.00 0.00 100 1011.0
20260507021007 57 196 2.0 10.0 0.00 0.00 0.00 100 1010.9
20260507020506 57 188 5.0 10.0 0.00 0.00 0.00 100 1010.9
20260507020005 57 177 3.0 7.0 0.00 0.00 0.00 100 1010.9
20260507015504 57 181 3.0 6.0 0.00 0.00 0.00 100 1010.8
20260507015003 57 175 2.0 6.0 0.00 0.00 0.00 100 1010.8
20260507014501 57 166 2.0 7.0 0.00 0.00 0.00 100 1010.9
20260507013459 58 179 5.0 8.0 0.00 0.00 0.00 100 1010.9
20260507012956 58 192 4.0 8.0 0.00 0.00 0.00 100 1010.9
20260507012455 58 190 4.0 8.0 0.00 0.00 0.00 100 1011.0
20260507011953 58 202 4.0 10.0 0.00 0.00 0.00 100 1010.9
20260507011451 58 202 5.0 11.0 0.00 0.00 0.00 100 1010.9
20260507010449 59 208 5.0 12.0 0.00 0.00 0.00 100 1010.6
20260507005947 59 203 5.0 12.0 0.00 0.00 0.00 100 1010.5
20260507005443 59 204 6.0 13.0 0.00 0.00 0.00 100 1010.5
20260507004942 59 200 5.0 18.0 0.00 0.00 0.00 100 1010.3
20260507004441 59 200 7.0 18.0 0.00 0.00 0.00 100 1010.2
20260507003937 60 202 7.0 21.0 0.00 0.00 0.00 100 1010.1
20260507003432 60 212 9.0 21.0 0.00 0.00 0.00 100 1009.9
20260507002931 60 207 10.0 19.0 0.00 0.00 0.00 100 1009.8
20260507001427 61 202 11.0 22.0 0.00 0.00 0.00 100 1009.8
20260507000926 61 201 8.0 21.0 0.00 0.00 0.00 100 1009.7
20260506235924 61 202 12.0 23.0 0.00 0.00 0.00 100 1009.6
20260506235422 62 201 12.0 23.0 0.00 0.00 0.00 100 1009.5
20260506234916 62 198 11.0 23.0 0.00 0.00 0.00 100 1009.5
20260506234356 62 201 14.0 23.0 0.00 0.00 0.00 98 1009.3
20260506233844 62 198 12.0 29.0 0.00 0.00 0.00 96 1009.2
20260506233325 63 197 17.0 29.0 0.00 0.00 0.00 94 1009.2
20260506232824 63 201 8.0 18.0 0.00 0.00 0.00 94 1009.0
20260506231722 62 182 8.0 16.0 0.00 0.00 0.00 98 1008.9
20260506231213 61 182 7.0 20.0 0.00 0.00 0.00 100 1008.7
20260506230711 62 171 9.0 19.0 0.00 0.00 0.00 98 1008.5
20260506230210 62 177 12.0 21.0 0.00 0.00 0.00 98 1008.6
20260506225710 63 174 14.0 23.0 0.00 0.00 0.00 97 1008.4
20260506225208 62 155 10.0 27.0 0.00 0.00 0.00 99 1008.4
20260506224707 62 161 12.0 22.0 0.00 0.00 0.00 100 1008.3
20260506224206 62 160 14.0 22.0 0.00 0.00 0.00 98 1008.2
20260506223704 62 165 10.0 23.0 0.00 0.00 0.00 100 1008.3
20260506223203 62 157 11.0 23.0 0.00 0.00 0.00 100 1008.1
20260506222702 62 161 14.0 24.0 0.00 0.00 0.00 100 1008.2
20260506222157 62 168 13.0 23.0 0.00 0.00 0.00 100 1008.2
20260506221150 63 162 13.0 28.0 0.00 0.00 0.00 99 1008.2